NT9G Weather Reports


Display with metric or nautical units.
time (UTC)temp
F
wind
direction
speed
MPH
gust
MPH
rain 1hr
in
rain 24hr
in
rain mn
in
humidity
%
barometer
mb
20260906012815 79 0 0.0 0.0 0.00 0.00 0.00 74 1014.6
20260906012313 80 0 0.0 0.0 0.00 0.00 0.00 70 1014.5
20260906011812 80 0 0.0 0.0 0.00 0.00 0.00 68 1014.5
20260906011312 81 0 0.0 0.0 0.00 0.00 0.00 65 1014.4
20260906010812 81 0 0.0 0.0 0.00 0.00 0.00 67 1014.4
20260906010312 81 0 0.0 0.0 0.00 0.00 0.00 68 1014.4
20260906005811 81 0 0.0 0.0 0.00 0.00 0.00 65 1014.4
20260906005311 82 0 0.0 0.0 0.00 0.00 0.00 62 1014.3
20260906004811 83 0 0.0 0.0 0.00 0.00 0.00 62 1014.4
20260906004640 82 0 0.0 0.0 0.00 0.00 0.00 65 1014.4
20260906004310 82 0 0.0 0.0 0.00 0.00 0.00 65 1014.4
20260906003810 81 0 0.0 0.0 0.00 0.00 0.00 66 1014.3
20260906003309 82 0 0.0 0.0 0.00 0.00 0.00 64 1014.4
20260906002809 84 0 0.0 0.0 0.00 0.00 0.00 62 1014.4
20260906002309 83 0 0.0 0.0 0.00 0.00 0.00 65 1014.4
20260906001308 84 0 0.0 0.0 0.00 0.00 0.00 62 1014.4
20260906000808 85 0 0.0 0.0 0.00 0.00 0.00 60 1014.3
20260906000308 85 0 0.0 0.0 0.00 0.00 0.00 59 1014.3
20260906000039 85 0 0.0 0.0 0.00 0.00 0.00 61 1014.3
20260905235808 85 0 0.0 0.0 0.00 0.00 0.00 59 1014.2
20260905235307 85 0 0.0 0.0 0.00 0.00 0.00 61 1014.3
20260905234807 85 0 0.0 0.0 0.00 0.00 0.00 60 1014.3
20260905233806 87 0 0.0 0.0 0.00 0.00 0.00 57 1014.1
20260905233306 87 0 0.0 0.0 0.00 0.00 0.00 56 1013.9
20260905232806 87 0 0.0 0.0 0.00 0.00 0.00 54 1013.9
20260905232306 88 0 0.0 0.0 0.00 0.00 0.00 52 1013.8
20260905231805 89 0 0.0 0.0 0.00 0.00 0.00 51 1013.7
20260905231305 89 0 0.0 0.0 0.00 0.00 0.00 52 1013.7
20260905230805 88 0 0.0 0.0 0.00 0.00 0.00 52 1013.7
20260905230304 89 0 0.0 0.0 0.00 0.00 0.00 52 1013.7
20260905225804 89 0 0.0 0.0 0.00 0.00 0.00 50 1013.6
20260905225305 90 0 0.0 0.0 0.00 0.00 0.00 50 1013.8
20260905224804 89 0 0.0 0.0 0.00 0.00 0.00 52 1013.9
20260905224303 90 0 0.0 0.0 0.00 0.00 0.00 52 1013.9
20260905223803 90 0 0.0 0.0 0.00 0.00 0.00 51 1013.8
20260905223303 90 0 0.0 0.0 0.00 0.00 0.00 51 1013.7
20260905222802 91 0 0.0 0.0 0.00 0.00 0.00 50 1013.7
20260905222305 91 0 0.0 0.0 0.00 0.00 0.00 50 1013.6
20260905221802 90 0 0.0 0.0 0.00 0.00 0.00 54 1013.6
20260905221302 90 0 0.0 0.0 0.00 0.00 0.00 52 1013.6
20260905220301 92 0 0.0 0.0 0.00 0.00 0.00 49 1013.5
20260905215801 91 0 0.0 0.0 0.00 0.00 0.00 51 1013.5
20260905215300 92 0 0.0 0.0 0.00 0.00 0.00 51 1013.4
20260905214800 92 0 0.0 0.0 0.00 0.00 0.00 50 1013.4
20260905214300 94 0 0.0 0.0 0.00 0.00 0.00 45 1013.4
20260905213800 95 0 0.0 0.0 0.00 0.00 0.00 45 1013.3
20260905213259 95 0 0.0 0.0 0.00 0.00 0.00 46 1013.3
20260905212759 93 0 0.0 0.0 0.00 0.00 0.00 47 1013.3
20260905212259 94 0 0.0 0.0 0.00 0.00 0.00 46 1013.3
20260905211758 94 0 0.0 0.0 0.00 0.00 0.00 46 1013.3
20260905211258 93 0 0.0 0.0 0.00 0.00 0.00 46 1013.4
20260905210758 94 0 0.0 0.0 0.00 0.00 0.00 47 1013.4
20260905210257 93 0 0.0 0.0 0.00 0.00 0.00 48 1013.3
20260905205757 94 0 0.0 0.0 0.00 0.00 0.00 45 1013.3
20260905205257 95 0 0.0 0.0 0.00 0.00 0.00 43 1013.3
20260905204757 96 0 0.0 0.0 0.00 0.00 0.00 42 1013.4
20260905204256 95 0 0.0 0.0 0.00 0.00 0.00 44 1013.4
20260905203756 94 0 0.0 0.0 0.00 0.00 0.00 44 1013.5
20260905203256 95 0 0.0 0.0 0.00 0.00 0.00 42 1013.6
20260905202255 96 0 0.0 0.0 0.00 0.00 0.00 43 1013.6
20260905201755 95 0 0.0 0.0 0.00 0.00 0.00 43 1013.6
20260905201254 95 0 0.0 0.0 0.00 0.00 0.00 44 1013.7
20260905200754 95 0 0.0 0.0 0.00 0.00 0.00 45 1013.7
20260905200254 96 0 0.0 0.0 0.00 0.00 0.00 43 1013.7
20260905195754 96 0 0.0 0.0 0.00 0.00 0.00 42 1013.7
20260905195253 96 0 0.0 0.0 0.00 0.00 0.00 42 1013.8
20260905194753 95 0 0.0 0.0 0.00 0.00 0.00 46 1013.7
20260905194253 96 0 0.0 0.0 0.00 0.00 0.00 43 1013.8
20260905193752 96 0 0.0 0.0 0.00 0.00 0.00 43 1013.8
20260905193252 96 0 0.0 0.0 0.00 0.00 0.00 41 1013.8
20260905192752 96 0 0.0 0.0 0.00 0.00 0.00 44 1013.8
20260905192252 96 0 0.0 0.0 0.00 0.00 0.00 40 1013.8
20260905191751 96 0 0.0 0.0 0.00 0.00 0.00 43 1013.8
20260905191251 95 0 0.0 0.0 0.00 0.00 0.00 44 1013.9
20260905190250 94 0 0.0 0.0 0.00 0.00 0.00 46 1013.9
20260905185750 96 0 0.0 0.0 0.00 0.00 0.00 43 1013.9
20260905185250 96 0 0.0 0.0 0.00 0.00 0.00 42 1014.0
20260905184750 95 0 0.0 0.0 0.00 0.00 0.00 45 1014.1
20260905183749 95 0 0.0 0.0 0.00 0.00 0.00 44 1014.1
20260905183249 96 0 0.0 0.0 0.00 0.00 0.00 42 1014.1
20260905182748 95 0 0.0 0.0 0.00 0.00 0.00 43 1014.1
20260905182248 95 0 0.0 0.0 0.00 0.00 0.00 44 1014.2
20260905181748 95 0 0.0 0.0 0.00 0.00 0.00 44 1014.2
20260905181247 95 0 0.0 0.0 0.00 0.00 0.00 46 1014.3
20260905180747 95 0 0.0 0.0 0.00 0.00 0.00 43 1014.4
20260905180247 95 0 0.0 0.0 0.00 0.00 0.00 45 1014.3
20260905175747 94 0 0.0 0.0 0.00 0.00 0.00 46 1014.3
20260905175246 95 0 0.0 0.0 0.00 0.00 0.00 42 1014.3
20260905174246 95 0 0.0 0.0 0.00 0.00 0.00 45 1014.3
20260905173746 95 0 0.0 0.0 0.00 0.00 0.00 44 1014.3
20260905173245 95 0 0.0 0.0 0.00 0.00 0.00 46 1014.4
20260905172745 94 0 0.0 0.0 0.00 0.00 0.00 48 1014.4
20260905172245 95 0 0.0 0.0 0.00 0.00 0.00 43 1014.4
20260905171744 95 0 0.0 0.0 0.00 0.00 0.00 45 1014.4
20260905171244 96 0 0.0 0.0 0.00 0.00 0.00 43 1014.4
20260905170744 95 0 0.0 0.0 0.00 0.00 0.00 46 1014.4
20260905170244 94 0 0.0 0.0 0.00 0.00 0.00 45 1014.4
20260905165243 94 0 0.0 0.0 0.00 0.00 0.00 46 1014.5
20260905164242 94 0 0.0 0.0 0.00 0.00 0.00 46 1014.6
20260905163742 94 0 0.0 0.0 0.00 0.00 0.00 47 1014.6
20260905163242 94 0 0.0 0.0 0.00 0.00 0.00 47 1014.7
20260905162742 94 0 0.0 0.0 0.00 0.00 0.00 49 1014.6
20260905162241 94 0 0.0 0.0 0.00 0.00 0.00 48 1014.7
20260905161741 93 0 0.0 0.0 0.00 0.00 0.00 47 1014.6
20260905161241 93 0 0.0 0.0 0.00 0.00 0.00 49 1014.6
20260905160740 93 0 0.0 0.0 0.00 0.00 0.00 48 1014.6
20260905160240 92 0 0.0 0.0 0.00 0.00 0.00 49 1014.6
20260905155740 92 0 0.0 0.0 0.00 0.00 0.00 51 1014.5
20260905155240 92 0 0.0 0.0 0.00 0.00 0.00 49 1014.6
20260905154739 92 0 0.0 0.0 0.00 0.00 0.00 50 1014.5
20260905154239 92 0 0.0 0.0 0.00 0.00 0.00 48 1014.4
20260905153739 92 0 0.0 0.0 0.00 0.00 0.00 51 1014.4
20260905153238 92 0 0.0 0.0 0.00 0.00 0.00 52 1014.3
20260905152738 91 0 0.0 0.0 0.00 0.00 0.00 53 1014.3
20260905152238 90 0 0.0 0.0 0.00 0.00 0.00 53 1014.3
20260905151738 91 0 0.0 0.0 0.00 0.00 0.00 52 1014.3
20260905151237 91 0 0.0 0.0 0.00 0.00 0.00 53 1014.2
20260905150236 91 0 0.0 0.0 0.00 0.00 0.00 53 1014.1
20260905145736 90 0 0.0 0.0 0.00 0.00 0.00 57 1014.0
20260905144736 90 0 0.0 0.0 0.00 0.00 0.00 55 1014.0
20260905144236 89 0 0.0 0.0 0.00 0.00 0.00 55 1013.9
20260905143735 89 0 0.0 0.0 0.00 0.00 0.00 56 1013.9
20260905143235 89 0 0.0 0.0 0.00 0.00 0.00 54 1013.8
20260905141734 88 0 0.0 0.0 0.00 0.00 0.00 57 1013.7
20260905141234 88 0 0.0 0.0 0.00 0.00 0.00 59 1013.6
20260905140733 87 0 0.0 0.0 0.00 0.00 0.00 60 1013.7
20260905140233 87 0 0.0 0.0 0.00 0.00 0.00 61 1013.7
20260905135733 86 0 0.0 0.0 0.00 0.00 0.00 62 1013.7
20260905135445 85 0 0.0 0.0 0.00 0.00 0.00 63 1013.7
20260905135232 85 0 0.0 0.0 0.00 0.00 0.00 63 1013.7
20260905134001 83 0 0.0 0.0 0.00 0.00 0.00 78 1013.6
20260905133730 83 0 0.0 0.0 0.00 0.00 0.00 78 1013.6
20260905133624 81 0 0.0 0.0 0.00 0.00 0.00 84 1013.6
20260905133230 81 0 0.0 0.0 0.00 0.00 0.00 84 1013.6
20260905132729 81 0 0.0 0.0 0.00 0.00 0.00 85 1013.7
20260905132616 81 0 0.0 0.0 0.00 0.00 0.00 83 1013.8
20260905132229 81 0 0.0 0.0 0.00 0.00 0.00 83 1013.8
20260905131729 81 0 0.0 0.0 0.00 0.00 0.00 82 1013.7
20260905131229 81 0 0.0 0.0 0.00 0.00 0.00 80 1013.6
20260905131129 81 0 0.0 0.0 0.00 0.00 0.00 80 1013.6
20260905130728 81 0 0.0 0.0 0.00 0.00 0.00 80 1013.6
20260905130227 81 0 0.0 0.0 0.00 0.00 0.00 82 1013.5
20260905125727 80 0 0.0 0.0 0.00 0.00 0.00 90 1013.3
20260905125227 78 0 0.0 0.0 0.00 0.00 0.00 88 1013.2
20260905125033 77 0 0.0 0.0 0.00 0.00 0.00 87 1013.2
20260905124725 77 0 0.0 0.0 0.00 0.00 0.00 87 1013.2
20260905124555 77 0 0.0 0.0 0.00 0.00 0.00 87 1013.3
20260905124225 77 0 0.0 0.0 0.00 0.00 0.00 87 1013.3
20260905124152 77 0 0.0 0.0 0.00 0.00 0.00 84 1013.2
20260905123725 77 0 0.0 0.0 0.00 0.00 0.00 84 1013.2
20260905122651 76 0 0.0 0.0 0.00 0.00 0.00 82 1013.0
20260905122224 76 0 0.0 0.0 0.00 0.00 0.00 82 1013.0
20260905121723 76 0 0.0 0.0 0.00 0.00 0.00 80 1013.0
20260905121223 76 0 0.0 0.0 0.00 0.00 0.00 80 1012.9
20260905120222 76 0 0.0 0.0 0.00 0.00 0.00 83 1012.8
20260905115721 77 0 0.0 0.0 0.00 0.00 0.00 85 1012.8
20260905115220 77 0 0.0 0.0 0.00 0.00 0.00 85 1012.8
20260905115028 77 0 0.0 0.0 0.00 0.00 0.00 85 1012.7
20260905114720 77 0 0.0 0.0 0.00 0.00 0.00 85 1012.7
20260905114541 77 0 0.0 0.0 0.00 0.00 0.00 85 1012.7
20260905114220 77 0 0.0 0.0 0.00 0.00 0.00 85 1012.7
20260905113939 77 0 0.0 0.0 0.00 0.00 0.00 85 1012.7
20260905113719 77 0 0.0 0.0 0.00 0.00 0.00 85 1012.7
20260905113220 78 0 0.0 0.0 0.00 0.00 0.00 86 1012.6
20260905112718 78 0 0.0 0.0 0.00 0.00 0.00 92 1012.5
20260905112218 76 0 0.0 0.0 0.00 0.00 0.00 79 1012.5
20260905112153 75 0 0.0 0.0 0.00 0.00 0.00 79 1012.5
20260905111718 75 0 0.0 0.0 0.00 0.00 0.00 79 1012.5
20260905111216 75 0 0.0 0.0 0.00 0.00 0.00 79 1012.5
20260905110717 75 0 0.0 0.0 0.00 0.00 0.00 75 1012.5
20260905110215 75 0 0.0 0.0 0.00 0.00 0.00 77 1012.5
20260905105750 75 0 0.0 0.0 0.00 0.00 0.00 78 1012.5
20260905105714 75 0 0.0 0.0 0.00 0.00 0.00 78 1012.5
20260905105405 75 0 0.0 0.0 0.00 0.00 0.00 78 1012.5
20260905105214 75 0 0.0 0.0 0.00 0.00 0.00 78 1012.5
20260905104714 75 0 0.0 0.0 0.00 0.00 0.00 77 1012.5
20260905104211 75 0 0.0 0.0 0.00 0.00 0.00 76 1012.6
20260905103444 76 0 0.0 0.0 0.00 0.00 0.00 77 1012.6
20260905103210 76 0 0.0 0.0 0.00 0.00 0.00 77 1012.6
20260905102709 76 0 0.0 0.0 0.00 0.00 0.00 77 1012.6
20260905102344 76 0 0.0 0.0 0.00 0.00 0.00 77 1012.6
20260905102209 76 0 0.0 0.0 0.00 0.00 0.00 77 1012.6
20260905101708 76 0 0.0 0.0 0.00 0.00 0.00 77 1012.6
20260905101207 76 0 0.0 0.0 0.00 0.00 0.00 77 1012.6
20260905100707 76 0 0.0 0.0 0.00 0.00 0.00 77 1012.7
20260905100446 76 0 0.0 0.0 0.00 0.00 0.00 77 1012.7
20260905100206 76 0 0.0 0.0 0.00 0.00 0.00 77 1012.7
20260905095826 77 0 0.0 0.0 0.00 0.00 0.00 77 1012.6
20260905095703 77 0 0.0 0.0 0.00 0.00 0.00 77 1012.6
20260905095546 77 0 0.0 0.0 0.00 0.00 0.00 77 1012.7
20260905095203 77 0 0.0 0.0 0.00 0.00 0.00 77 1012.7
20260905094703 77 0 0.0 0.0 0.00 0.00 0.00 77 1012.7
20260905094203 78 0 0.0 0.0 0.00 0.00 0.00 77 1012.7
20260905093702 79 0 0.0 0.0 0.00 0.00 0.00 77 1012.8
20260905093404 79 0 0.0 0.0 0.00 0.00 0.00 80 1012.7
20260905093202 79 0 0.0 0.0 0.00 0.00 0.00 80 1012.7
20260905092702 78 0 0.0 0.0 0.00 0.00 0.00 86 1012.8
20260905092516 77 0 0.0 0.0 0.00 0.00 0.00 71 1012.8
20260905092201 77 0 0.0 0.0 0.00 0.00 0.00 71 1012.8
20260905091701 77 0 0.0 0.0 0.00 0.00 0.00 71 1012.8
20260905091200 77 0 0.0 0.0 0.00 0.00 0.00 71 1012.8
20260905090700 78 0 0.0 0.0 0.00 0.00 0.00 71 1012.8
20260905090334 80 0 0.0 0.0 0.00 0.00 0.00 73 1012.8
20260905090200 79 0 0.0 0.0 0.00 0.00 0.00 72 1012.9
20260905085700 79 0 0.0 0.0 0.00 0.00 0.00 72 1012.9
20260905085159 80 0 0.0 0.0 0.00 0.00 0.00 73 1012.8
20260905084158 80 0 0.0 0.0 0.00 0.00 0.00 82 1012.8
20260905083658 78 0 0.0 0.0 0.00 0.00 0.00 80 1012.7
20260905083158 78 0 0.0 0.0 0.00 0.00 0.00 79 1012.7
20260905082658 78 0 0.0 0.0 0.00 0.00 0.00 76 1012.7
20260905082157 78 0 0.0 0.0 0.00 0.00 0.00 77 1012.7
20260905081656 78 0 0.0 0.0 0.00 0.00 0.00 75 1012.7
20260905081156 78 0 0.0 0.0 0.00 0.00 0.00 73 1012.6
20260905080655 78 0 0.0 0.0 0.00 0.00 0.00 75 1012.7
20260905080155 78 0 0.0 0.0 0.00 0.00 0.00 77 1012.9
20260905080152 79 0 0.0 0.0 0.00 0.00 0.00 76 1012.9
20260905075655 79 0 0.0 0.0 0.00 0.00 0.00 76 1012.9
20260905075549 79 0 0.0 0.0 0.00 0.00 0.00 75 1013.0
20260905075155 79 0 0.0 0.0 0.00 0.00 0.00 75 1013.0
20260905074654 79 0 0.0 0.0 0.00 0.00 0.00 74 1013.0
20260905074154 80 0 0.0 0.0 0.00 0.00 0.00 74 1012.9
20260905073654 80 0 0.0 0.0 0.00 0.00 0.00 77 1012.9
20260905073153 80 0 0.0 0.0 0.00 0.00 0.00 82 1013.0
20260905072653 78 0 0.0 0.0 0.00 0.00 0.00 73 1013.0
20260905072153 77 0 0.0 0.0 0.00 0.00 0.00 74 1013.0
20260905071653 77 0 0.0 0.0 0.00 0.00 0.00 75 1013.0
20260905071152 78 0 0.0 0.0 0.00 0.00 0.00 76 1013.0
20260905070652 78 0 0.0 0.0 0.00 0.00 0.00 76 1013.0
20260905070152 78 0 0.0 0.0 0.00 0.00 0.00 76 1013.1
20260905065651 78 0 0.0 0.0 0.00 0.00 0.00 75 1013.1
20260905065151 78 0 0.0 0.0 0.00 0.00 0.00 75 1013.1
20260905064651 78 0 0.0 0.0 0.00 0.00 0.00 75 1013.1
20260905064151 79 0 0.0 0.0 0.00 0.00 0.00 76 1013.2
20260905063650 80 0 0.0 0.0 0.00 0.00 0.00 78 1013.2
20260905063149 80 0 0.0 0.0 0.00 0.00 0.00 81 1013.2
20260905062649 79 0 0.0 0.0 0.00 0.00 0.00 85 1013.2
20260905062149 77 0 0.0 0.0 0.00 0.00 0.00 74 1013.2
20260905061650 78 0 0.0 0.0 0.00 0.00 0.00 75 1013.3
20260905061147 78 0 0.0 0.0 0.00 0.00 0.00 74 1013.2
20260905060647 78 0 0.0 0.0 0.00 0.00 0.00 71 1013.2
20260905060147 79 0 0.0 0.0 0.00 0.00 0.00 70 1013.2
20260905055646 79 0 0.0 0.0 0.00 0.00 0.00 72 1013.2
20260905055146 80 0 0.0 0.0 0.00 0.00 0.00 78 1013.3
20260905054646 79 0 0.0 0.0 0.00 0.00 0.00 80 1013.4
20260905054146 78 0 0.0 0.0 0.00 0.00 0.00 66 1013.4
20260905053645 78 0 0.0 0.0 0.00 0.00 0.00 66 1013.5
20260905053145 78 0 0.0 0.0 0.00 0.00 0.00 66 1013.5
20260905052645 78 0 0.0 0.0 0.00 0.00 0.00 66 1013.5
20260905052144 78 0 0.0 0.0 0.00 0.00 0.00 67 1013.4
20260905051644 79 0 0.0 0.0 0.00 0.00 0.00 66 1013.5
20260905051144 79 0 0.0 0.0 0.00 0.00 0.00 66 1013.4
20260905050644 79 0 0.0 0.0 0.00 0.00 0.00 65 1013.4
20260905050143 79 0 0.0 0.0 0.00 0.00 0.00 67 1013.4
20260905045643 79 0 0.0 0.0 0.00 0.00 0.00 66 1013.4
20260905045143 79 0 0.0 0.0 0.00 0.00 0.00 65 1013.3
20260905044643 79 0 0.0 0.0 0.00 0.00 0.00 64 1013.4
20260905044142 79 0 0.0 0.0 0.00 0.00 0.00 65 1013.5
20260905043642 80 0 0.0 0.0 0.00 0.00 0.00 65 1013.5
20260905043142 80 0 0.0 0.0 0.00 0.00 0.00 65 1013.5
20260905042642 80 0 0.0 0.0 0.00 0.00 0.00 66 1013.5
20260905042141 80 0 0.0 0.0 0.00 0.00 0.00 66 1013.5
20260905041641 81 0 0.0 0.0 0.00 0.00 0.00 69 1013.6
20260905041140 81 0 0.0 0.0 0.00 0.00 0.00 71 1013.6
20260905040640 80 0 0.0 0.0 0.00 0.00 0.00 68 1013.7
20260905040139 81 0 0.0 0.0 0.00 0.00 0.00 67 1013.6
20260905035639 80 0 0.0 0.0 0.00 0.00 0.00 68 1013.5
20260905035139 81 0 0.0 0.0 0.00 0.00 0.00 67 1013.4
20260905035126 81 0 0.0 0.0 0.00 0.00 0.00 69 1013.3
20260905034638 80 0 0.0 0.0 0.00 0.00 0.00 68 1013.4
20260905034138 81 0 0.0 0.0 0.00 0.00 0.00 69 1013.3
20260905033638 81 0 0.0 0.0 0.00 0.00 0.00 69 1013.3
20260905033137 81 0 0.0 0.0 0.00 0.00 0.00 69 1013.3
20260905032637 81 0 0.0 0.0 0.00 0.00 0.00 67 1013.3
20260905032137 81 0 0.0 0.0 0.00 0.00 0.00 65 1013.2
20260905031637 81 0 0.0 0.0 0.00 0.00 0.00 64 1013.4
20260905031136 81 0 0.0 0.0 0.00 0.00 0.00 60 1013.4
20260905030636 81 0 0.0 0.0 0.00 0.00 0.00 63 1013.4
20260905030136 82 0 0.0 0.0 0.00 0.00 0.00 63 1013.4
20260905025636 82 0 0.0 0.0 0.00 0.00 0.00 66 1013.4
20260905025135 82 0 0.0 0.0 0.00 0.00 0.00 68 1013.5
20260905024635 82 0 0.0 0.0 0.00 0.00 0.00 67 1013.4
20260905024135 83 0 0.0 0.0 0.00 0.00 0.00 67 1013.3
20260905023635 83 0 0.0 0.0 0.00 0.00 0.00 66 1013.2
20260905023134 83 0 0.0 0.0 0.00 0.00 0.00 64 1013.1
20260905022634 83 0 0.0 0.0 0.00 0.00 0.00 63 1013.1
20260905022134 83 0 0.0 0.0 0.00 0.00 0.00 62 1013.2
20260905021633 84 0 0.0 0.0 0.00 0.00 0.00 64 1013.3
20260905021133 84 0 0.0 0.0 0.00 0.00 0.00 62 1013.3
20260905020633 85 0 0.0 0.0 0.00 0.00 0.00 62 1013.3
20260905020132 85 0 0.0 0.0 0.00 0.00 0.00 62 1013.3
20260905015632 86 0 0.0 0.0 0.00 0.00 0.00 61 1013.4
20260905015132 86 0 0.0 0.0 0.00 0.00 0.00 59 1013.3
20260905014632 87 0 0.0 0.0 0.00 0.00 0.00 62 1013.3
20260905014131 87 0 0.0 0.0 0.00 0.00 0.00 62 1013.4
20260905013631 87 0 0.0 0.0 0.00 0.00 0.00 62 1013.3
20260905013131 88 0 0.0 0.0 0.00 0.00 0.00 60 1013.2